Location: Unnamed
(47.6264°N, 122.3366°W)
Time: 21:18:25
(UTC-07:00)

ELYUSIUM/LOWER FREE FLYE - Pass Details

Date: 13 August 2020
Orbit: 571 x 589 km, 97.7° (Epoch: 21 September)

Event Time Altitude Azimuth Distance (km) Brightness Sun altitude
Exits shadow 21:38:46 13° 93° (E) 1,724 ? -11.8°
Maximum altitude 21:40:41 17° 62° (ENE) 1,509 ? -12.0°
Drops below altitude 10° 21:43:18 10° 22° (NNE) 1,901 ? -12.4°
Sets 21:46:05 0° 2° (N) 2,809 ? -12.8°
